Location: Altmatt
(47.1333°N, 8.7000°E)
Time: 18:05:39
(UTC+00:00)

Cosmos 1408 Rocket - Pass Details

Date: 13 July 2020
Orbit: 601 x 630 km, 82.6° (Epoch: 12 August)

Event Time Altitude Azimuth Distance (km) Brightness Sun altitude
Exits shadow 22:30:56 39° 210° (SSW) 945 4.1 -19.9°
Maximum altitude 22:32:29 68° 281° (W) 675 3.7 -20.0°
Drops below altitude 10° 22:36:56 10° 4° (N) 2,013 7.2 -20.1°
Sets 22:39:12 0° 7° (N) 2,928 8.3 -20.2°
